Location: Shenandoah County Park
(38.9356°N, 78.4524°W)
Time: 02:39:13
(UTC-05:00)

A-11 Canister half - Pass Details

Date: 12 December 2023
Orbit: 1526 x 1682 km, 47.3° (Epoch: 01 March)

Event Time Altitude Azimuth Distance (km) Brightness Sun altitude
Rises 20:35:45 0° 285° (WNW) 4,934 12.4 -42.6°
Reaches altitude 10° 20:39:04 10° 290° (WNW) 3,946 11.7 -43.3°
Enters shadow 20:46:32 46° 326° (NW) 2,138 9.7 -44.7°
